sat.trackr.live / text

‹ back to catalog

RASSVET-3 10

NORAD 68369 · 2026-061K

PAYLOAD ACTIVE UNKNOWN

§ Identity

Operator
Country
CIS
Launch date
2026-03-23
Launch site
PLMSC
Launch vehicle
Mass (kg)
RCS (m²)

External: N2YO · Heavens-Above · Gunter

§ Orbital elements

Epoch: 2026-05-25T04:17:20.112864Z

Period
90.36 min
Inclination
82.2965°
Eccentricity
0.0014958
Mean motion
15.93702667 rev/d
Perigee alt
282.0 km
Apogee alt
301.9 km
Semi-major
6,670.1 km
B*
2.4207e-4
RAAN
37.7846°
Arg perigee
175.9491°
Mean anomaly
184.1907°
Rev number
993

§ Raw data

RASSVET-3 101 68369U 26061K   26145.17870501  .00088327  17119-5  24207-3 0  99942 68369  82.2965  37.7846 0014958 175.9491 184.1907 15.93702667  9931

JSON: /api/v1/satellites/68369 · /tle

For live sub-satellite position, see the globe view (requires WebGL).

§ Visibility from observer

Set your observer location to see the next 7 days of passes ≥ 10°. The values pass through the URL so the page stays shareable.

No JS? Fill the form by hand. The geolocation button needs JavaScript.